User: anonymous   Login
Location: Dunedin
(45.8670°S, 170.5000°E)
Time: 15:18:42
(UTC+13:00)
Language:

Cosmos 841 Rocket - Orbit

View from above orbital plane
View from above orbital plane
View from above satellite
View from above satellite

Ground track
Ground track

The orbit data is extracted from the following two-line orbital elements,

1  9023U 76069B   19081.89489450  .00000041  00000-0  21557-4 0  9997
2  9023  74.0452 348.6978 0017595 351.5240   8.5615 14.39614181237454
Epoch (UTC): 22 March 2019 21:28:38
Eccentricity: 0.0017595
inclination: 74.0452°
perigee height: 747 km
apogee height: 772 km
right ascension of ascending node: 348.6978°
argument of perigee: 351.5240°
revolutions per day: 14.39614181
mean anomaly at epoch: 8.5615°
orbit number at epoch: 23745

The dashed part of the orbit path shows where the satellite is in the earth's shadow,  

DLR